Weather History for Fayetteville, AR

Change the Weather History Date:

Monday, April 1, 2013

  Actual Average Record
Temperature  
Mean Temperature 52 °F 53 °F  
Max Temperature 66 °F 65 °F 85 °F (2012)
Min Temperature 37 °F 40 °F 20 °F (1954)
Degree Days  
Heating Degree Days 13 13  
Month to date heating degree days 13 13  
Since 1 July heating degree days 3729 3842  
Cooling Degree Days 0 0  
Month to date cooling degree days 0 0  
Year to date cooling degree days 1 4  
Moisture  
Dew Point 41 °F    
Average Humidity 72    
Maximum Humidity 100    
Minimum Humidity 43    
Precipitation  
Precipitation T in 0.14 in 1.29 in (1959)
Month to date precipitation T 0.14  
Year to date precipitation 10.33 9.74  
Sea Level Pressure  
Sea Level Pressure 30.09 in    
Wind  
Wind Speed 5 mph (NE)    
Max Wind Speed 17 mph    
Max Gust Speed 22 mph    
Visibility 10 miles    
Events Rain    
T = Trace of Precipitation, MM = Missing Value Source: NWS Daily Summary

Daily Weather History Graph

Daily Weather History Graph

Search for Another Location

Airport:

Trip Planner

Search our weather history database for the weather conditions in past years. The results will help you decide how hot, cold, wet, or windy it might be!

Date:

Astronomy

Apr. 01, 2013 Rise Set
Actual Time 7:02 AM CDT 7:38 PM CDT
Civil Twilight 6:36 AM CDT 8:04 PM CDT
Nautical Twilight 6:06 AM CDT 8:35 PM CDT
Astronomical Twilight 5:35 AM CDT 9:06 PM CDT
Moon 12:39 AM CDT 10:58 AM CDT
Length of Visible Light 13h 27m
Length of Day
12h 36m
Waning Gibbous, 67% of the Moon is Illuminated
Apr 1
Waning Gibbous
Apr 2
Last Quarter
Apr 10
New
Apr 18
First Quarter
Apr 25
Full

Hourly Weather History & Observations

Time (CDT) Temp. Windchill Dew Point Humidity Pressure Visibility Wind Dir Wind Speed Gust Speed Precip Events Conditions
12:53 AM 43.0 °F - 41.0 °F 93% 29.99 in 10.0 mi Calm Calm - N/A   Clear
1:53 AM 42.1 °F 39.2 °F 41.0 °F 96% 29.99 in 10.0 mi South 4.6 mph - N/A   Clear
2:53 AM 39.9 °F 37.8 °F 39.0 °F 97% 30.00 in 10.0 mi South 3.5 mph - N/A   Clear
3:53 AM 39.0 °F - 37.0 °F 93% 30.01 in 10.0 mi Calm Calm - N/A   Clear
4:53 AM 37.9 °F - 37.9 °F 100% 30.02 in 10.0 mi Calm Calm - N/A   Clear
5:53 AM 37.9 °F - 37.9 °F 100% 30.05 in 10.0 mi Calm Calm - N/A   Clear
6:53 AM 37.9 °F - 37.0 °F 97% 30.06 in 10.0 mi Calm Calm - N/A   Clear
7:53 AM 39.0 °F - 37.9 °F 96% 30.09 in 10.0 mi Calm Calm - N/A   Clear
8:53 AM 46.0 °F - 42.1 °F 86% 30.09 in 10.0 mi Calm Calm - N/A   Clear
9:53 AM 53.6 °F - 42.8 °F 67% 30.11 in 10.0 mi Variable 4.6 mph - N/A   Clear
10:53 AM 57.0 °F - 44.1 °F 62% 30.13 in 10.0 mi NE 8.1 mph - N/A   Clear
11:53 AM 59.0 °F - 42.1 °F 53% 30.14 in 10.0 mi NNE 5.8 mph - N/A   Clear
12:53 PM 61.0 °F - 43.0 °F 52% 30.12 in 10.0 mi ENE 5.8 mph - N/A   Clear
1:53 PM 64.0 °F - 43.0 °F 46% 30.10 in 10.0 mi SSE 4.6 mph - N/A   Clear
2:53 PM 64.0 °F - 41.0 °F 43% 30.10 in 10.0 mi Calm Calm - N/A   Clear
3:53 PM 64.9 °F - 43.0 °F 45% 30.11 in 10.0 mi NW 12.7 mph - N/A   Clear
4:53 PM 60.1 °F - 42.1 °F 51% 30.10 in 10.0 mi North 15.0 mph - N/A   Mostly Cloudy
5:53 PM 53.1 °F - 41.0 °F 64% 30.11 in 10.0 mi North 10.4 mph 17.3 mph N/A   Clear
6:53 PM 51.1 °F - 42.1 °F 71% 30.12 in 10.0 mi NNE 8.1 mph - 0.00 in Rain Light Rain
7:53 PM 50.0 °F - 42.1 °F 74% 30.11 in 10.0 mi NE 5.8 mph - 0.00 in   Clear
8:53 PM 48.0 °F - 41.0 °F 77% 30.12 in 10.0 mi NE 5.8 mph - N/A   Scattered Clouds
9:53 PM 46.9 °F - 39.9 °F 77% 30.15 in 10.0 mi NE 5.8 mph - N/A   Overcast
10:53 PM 46.0 °F 43.1 °F 39.9 °F 79% 30.15 in 10.0 mi ENE 5.8 mph - 0.00 in   Overcast
11:53 PM 45.0 °F 40.6 °F 37.9 °F 76% 30.16 in 10.0 mi NE 8.1 mph - 0.00 in Rain Light Rain